[[{"header":{"parameterUnit":"m.s-1","parameterCategory":1,"la1":30.2991,"la2":30.254,"lo1":-89.0895,"lo2":-89.0444,"dy":0.0017,"dx":0.0017,"nx":28,"ny":28,"refTime":"2025-09-06T09:00:00:Z","depth":0,"parameterNumber":2,"parameterNumberName":"U-component_of_WINDS"},"data":[0,0,0,0,0,0,0,0,0,0,0,0,0,0,0,0,0,0,0,0,0,0,0,0,0,0,0,0,0,0,0,0,0,0,0,0,0,0,0,0,0,0,0,0,0,0,0,0,0,0,0,0,0,0,0,0,0,0,-0.2145,-0.2146,0,-0.2176,-0.2176,-0.2177,-0.2176,-0.2175,-0.2175,-0.2174,-0.2208,-0.2209,-0.221,0,0,0,0,0,0,0,0,0,0,0,0,0,-0.2086,-0.2087,-0.2145,-0.2146,-0.2146,-0.2176,-0.2176,-0.2177,-0.2176,-0.2175,-0.2175,-0.2174,-0.2207,-0.2209,-0.221,0,0,0,0,0,0,0,0,0,0,0,0,0,-0.2114,-0.2087,-0.2145,-0.2149,-0.215,-0.2176,-0.2176,-0.2177,-0.2176,-0.2175,-0.2174,-0.2174,-0.2207,-0.2209,-0.221,-0.2235,0,0,-0.2216,-0.2217,0,0,0,0,0,0,0,0,-0.2112,-0.2116,-0.2148,-0.2149,-0.215,-0.2171,-0.2168,-0.2197,-0.2176,-0.2166,-0.2174,-0.2173,-0.2196,-0.2199,-0.2206,-0.2237,-0.2238,-0.2217,-0.2218,-0.2219,-0.2219,0,0,0,0,0,0,0,-0.211,-0.2115,-0.2157,-0.2149,-0.2149,-0.2149,-0.2152,-0.2173,-0.2184,-0.2167,-0.2167,-0.217,-0.2196,-0.2204,-0.2207,-0.2239,-0.2217,-0.2218,-0.2219,-0.222,-0.229,-0.2291,0,0,0,0,0,0,-0.2107,-0.2113,-0.2156,-0.2158,-0.2129,-0.2151,-0.2154,-0.2165,-0.2184,-0.2186,-0.2171,-0.217,-0.2201,-0.2205,-0.2208,-0.2238,-0.2219,-0.222,-0.2221,-0.229,-0.229,-0.2291,0,0,0,0,0,0,-0.2106,-0.2111,-0.2155,-0.2136,-0.2141,-0.2153,-0.2164,-0.2166,-0.2174,-0.2187,-0.2189,-0.2177,-0.2201,-0.2205,-0.2228,-0.2239,-0.2221,-0.2223,-0.2289,-0.229,-0.2291,-0.2299,0,0,0,0,0,0,-0.2104,-0.2111,-0.2121,-0.2136,-0.2142,-0.2175,-0.2165,-0.2167,-0.2177,-0.2176,-0.2193,-0.2196,-0.2201,-0.2225,-0.223,-0.2242,-0.2225,-0.2288,-0.2289,-0.229,-0.2298,-0.23,-0.2302,0,0,0,0,0,-0.2102,-0.2122,-0.2121,-0.2126,-0.2155,-0.2176,-0.2179,-0.2184,-0.2178,-0.2188,-0.2196,-0.2195,-0.2237,-0.2228,-0.2233,-0.2245,-0.2287,-0.2289,-0.229,-0.2297,-0.2299,-0.2302,0,0,0,0,0,0,-0.211,-0.2125,-0.2123,-0.2149,-0.2161,-0.2175,-0.2188,-0.2187,-0.2202,-0.2201,-0.2207,-0.2211,-0.2234,-0.2242,-0.2231,-0.227,-0.2261,-0.2264,-0.2264,-0.2267,-0.2269,-0.2267,-0.2226,0,0,0,0,0,-0.2114,-0.2129,-0.2142,-0.2163,-0.2169,-0.2177,-0.2187,-0.2189,-0.2202,-0.2207,-0.2217,-0.223,-0.2246,-0.2257,-0.2272,-0.2298,-0.2301,-0.2309,-0.2311,-0.2313,-0.2316,-0.2329,-0.2332,-0.2296,-0.2296,-0.2296,0,0,-0.2124,-0.2134,-0.2143,-0.2165,-0.2174,-0.219,-0.2182,-0.2199,-0.2211,-0.221,-0.2232,-0.224,-0.2254,-0.2278,-0.229,-0.2286,-0.2326,-0.2315,-0.2316,-0.2318,-0.2331,-0.2334,-0.2337,-0.2297,-0.2297,-0.2297,0,0,-0.215,-0.2159,-0.2177,-0.2186,-0.22,-0.2205,-0.2209,-0.2223,-0.2228,-0.225,-0.2249,-0.2263,-0.229,-0.23,-0.2309,-0.2336,-0.2335,-0.234,-0.2353,-0.2365,-0.2368,-0.2371,-0.238,-0.2384,-0.2343,-0.2343,-0.2343,0,-0.2161,-0.2184,-0.2187,-0.2204,-0.2213,-0.2211,-0.223,-0.2238,-0.2257,-0.2263,-0.2258,-0.2291,-0.2301,-0.2327,-0.2333,-0.234,-0.2345,-0.2339,-0.2367,-0.237,-0.2372,-0.2382,-0.2385,-0.2343,-0.2343,-0.2343,-0.2343,0,-0.2196,-0.2212,-0.2226,-0.2242,-0.2252,-0.227,-0.2275,-0.2286,-0.2286,-0.2292,-0.2313,-0.2324,-0.2341,-0.2347,-0.2349,-0.2373,-0.237,-0.2366,-0.2358,-0.2376,-0.2385,-0.2389,-0.2344,-0.2344,-0.2344,-0.2344,0,0,-0.2231,-0.2246,-0.2251,-0.2258,-0.2272,-0.2285,-0.2301,-0.2317,-0.2325,-0.2337,-0.2352,-0.2373,-0.2369,-0.2379,-0.2381,-0.2392,-0.2412,-0.2387,-0.2387,-0.2391,-0.2439,-0.2443,-0.2447,-0.2411,-0.2411,-0.2412,-0.2438,0,-0.2259,-0.2289,-0.229,-0.2317,-0.2332,-0.2328,-0.2343,-0.2353,-0.2358,-0.237,-0.2376,-0.2391,-0.2384,-0.239,-0.2401,-0.2407,-0.2422,-0.2405,-0.2425,-0.2425,-0.2423,-0.2451,-0.2456,-0.248,-0.2441,-0.2442,-0.2442,0,-0.2296,-0.2308,-0.2336,-0.2346,-0.2352,-0.2365,-0.2378,-0.2391,-0.2401,-0.2404,-0.2413,-0.2413,-0.243,-0.2419,-0.2443,-0.2431,-0.2439,-0.2443,-0.2444,-0.2447,-0.2436,-0.2456,-0.2487,-0.2491,-0.2447,-0.2447,-0.2447,0,-0.2319,-0.2342,-0.2361,-0.2367,-0.2379,-0.2388,-0.2393,-0.2403,-0.2411,-0.2423,-0.2428,-0.2442,-0.245,-0.246,-0.2463,-0.2456,-0.2486,-0.2476,-0.2489,-0.2489,-0.2498,-0.2497,-0.2532,-0.2501,-0.25,-0.25,-0.25,0,-0.2351,-0.2369,-0.2371,-0.2383,-0.2402,-0.2403,-0.2422,-0.2427,-0.2435,-0.2447,-0.2445,-0.2457,-0.246,-0.2473,-0.2475,-0.2494,-0.2497,-0.25,-0.2501,-0.2501,-0.2501,-0.2507,-0.2506,-0.2501,-0.2501,-0.2501,-0.2501,0,-0.2381,-0.2383,-0.2404,-0.2412,-0.2415,-0.2429,-0.2436,-0.2447,-0.245,-0.2466,-0.247,-0.2475,-0.249,-0.2493,-0.2511,-0.2512,-0.2534,-0.2533,-0.2531,-0.2531,-0.2544,-0.2543,-0.2585,-0.259,-0.2555,-0.2555,-0.2555,0,-0.2402,-0.2415,-0.2424,-0.2432,-0.2437,-0.245,-0.2458,-0.2459,-0.2467,-0.2478,-0.2488,-0.2502,-0.2513,-0.2536,-0.2542,-0.2555,-0.2554,-0.2568,-0.2556,-0.2556,-0.2555,-0.2555,-0.2556,-0.2571,-0.2571,-0.2571,-0.2572,0,-0.2439,-0.2439,-0.245,-0.2461,-0.2471,-0.248,-0.2489,-0.2495,-0.2497,-0.2506,-0.252,-0.2529,-0.2545,-0.2559,-0.2571,-0.2577,-0.2575,-0.2574,-0.2578,-0.258,-0.2578,-0.2579,-0.2538,-0.2574,-0.2574,-0.2574,-0.2574,-0.2574,-0.2466,-0.2477,-0.2484,-0.2496,-0.2502,-0.251,-0.252,-0.2524,-0.2535,-0.2548,-0.2547,-0.2562,-0.2571,-0.2587,-0.2593,-0.2604,-0.26,-0.2606,-0.2608,-0.2609,-0.261,-0.2574,-0.2607,-0.2607,-0.2607,-0.2606,-0.2606,0,-0.2503,-0.2507,-0.2518,-0.2529,-0.2539,-0.2533,-0.2542,-0.255,-0.2563,-0.2571,-0.2581,-0.2596,-0.2608,-0.2614,-0.2626,-0.2634,-0.2633,-0.2637,-0.2638,-0.2639,-0.2613,-0.2609,-0.2638,-0.2638,-0.2638,-0.2638,-0.2638,-0.2638,-0.2524,-0.2542,-0.2542,-0.2562,-0.2566,-0.258,-0.2585,-0.2592,-0.2597,-0.2614,-0.2624,-0.2627,-0.2633,-0.2645,-0.2656,-0.2657,-0.2662,-0.2667,-0.2667,-0.2644,-0.2641,-0.2638,-0.2634,-0.2667,-0.2667,-0.2692,-0.2692,-0.2692]},{"header":{"parameterUnit":"m.s-1","parameterCategory":1,"la1":30.2991,"la2":30.254,"lo1":-89.0895,"lo2":-89.0444,"dy":0.0017,"dx":0.0017,"nx":28,"ny":28,"refTime":"2025-09-06T09:00:00:Z","depth":0,"parameterNumber":3,"parameterNumberName":"V-component_of_WINDS"},"data":[0,0,0,0,0,0,0,0,0,0,0,0,0,0,0,0,0,0,0,0,0,0,0,0,0,0,0,0,0,0,0,0,0,0,0,0,0,0,0,0,0,0,0,0,0,0,0,0,0,0,0,0,0,0,0,0,0,0,-5.5794,-5.5796,0,-5.5906,-5.5907,-5.5908,-5.5845,-5.5842,-5.5838,-5.5836,-5.5944,-5.595,-5.5956,0,0,0,0,0,0,0,0,0,0,0,0,0,-5.552,-5.5526,-5.5794,-5.5796,-5.5797,-5.5906,-5.5907,-5.5909,-5.5845,-5.5841,-5.5838,-5.5834,-5.5942,-5.5949,-5.5956,0,0,0,0,0,0,0,0,0,0,0,0,0,-5.5636,-5.5527,-5.5794,-5.5779,-5.5778,-5.5905,-5.5907,-5.5909,-5.5846,-5.5841,-5.5837,-5.5832,-5.594,-5.5948,-5.5957,-5.6104,0,0,-5.5984,-5.5987,0,0,0,0,0,0,0,0,-5.563,-5.5646,-5.578,-5.578,-5.578,-5.5857,-5.585,-5.5974,-5.5847,-5.582,-5.5835,-5.583,-5.5919,-5.5929,-5.596,-5.6109,-5.6114,-5.5984,-5.599,-5.5993,-5.5996,0,0,0,0,0,0,0,-5.5622,-5.5641,-5.5838,-5.5782,-5.5782,-5.5764,-5.5775,-5.5873,-5.5894,-5.5822,-5.5818,-5.5832,-5.5918,-5.5951,-5.5962,-5.6115,-5.5984,-5.5992,-5.5997,-5.6001,-5.6389,-5.6394,0,0,0,0,0,0,-5.5616,-5.5635,-5.5835,-5.5842,-5.5692,-5.5773,-5.5786,-5.5837,-5.5893,-5.5897,-5.5836,-5.5829,-5.5939,-5.5952,-5.5965,-5.6141,-5.5993,-5.6001,-5.6006,-5.6384,-5.639,-5.6395,0,0,0,0,0,0,-5.561,-5.5634,-5.583,-5.5737,-5.5761,-5.5783,-5.584,-5.5841,-5.5875,-5.5903,-5.5906,-5.5867,-5.5936,-5.5953,-5.607,-5.6143,-5.6005,-5.6013,-5.6378,-5.6386,-5.6393,-5.6492,0,0,0,0,0,0,-5.5602,-5.5632,-5.569,-5.5739,-5.5766,-5.5935,-5.5845,-5.5847,-5.5891,-5.5883,-5.5933,-5.5937,-5.5933,-5.6057,-5.6079,-5.6153,-5.602,-5.6371,-5.6381,-5.639,-5.6483,-5.6503,-5.652,0,0,0,0,0,-5.5593,-5.5713,-5.5693,-5.5718,-5.5839,-5.594,-5.5955,-5.595,-5.5897,-5.5954,-5.5972,-5.5936,-5.6132,-5.607,-5.6093,-5.6171,-5.6367,-5.6378,-5.639,-5.6474,-5.6499,-5.6519,0,0,0,0,0,0,-5.567,-5.5719,-5.5698,-5.5838,-5.5885,-5.5929,-5.6001,-5.5976,-5.6038,-5.6027,-5.6016,-5.6028,-5.615,-5.6172,-5.6102,-5.6315,-5.6241,-5.6257,-5.6297,-5.632,-5.6338,-5.6331,-5.6027,0,0,0,0,0,-5.5704,-5.5784,-5.5821,-5.594,-5.5965,-5.5979,-5.6023,-5.6015,-5.6063,-5.6082,-5.6109,-5.6155,-5.6227,-5.6275,-5.6342,-5.6485,-5.6494,-5.655,-5.6568,-5.6583,-5.6598,-5.6674,-5.6699,-5.6433,-5.6433,-5.6433,0,0,-5.5773,-5.581,-5.5861,-5.5957,-5.5993,-5.6074,-5.5997,-5.6086,-5.6145,-5.6095,-5.6208,-5.6229,-5.6279,-5.641,-5.6468,-5.6432,-5.6673,-5.6598,-5.661,-5.6616,-5.6689,-5.6714,-5.6736,-5.6441,-5.644,-5.6438,0,0,-5.5942,-5.5978,-5.6082,-5.6119,-5.6175,-5.6183,-5.6208,-5.6256,-5.6268,-5.6381,-5.6345,-5.6414,-5.6539,-5.6577,-5.6612,-5.6794,-5.6762,-5.6816,-5.6912,-5.6987,-5.7008,-5.7026,-5.7091,-5.7114,-5.683,-5.683,-5.6831,0,-5.6021,-5.6144,-5.6137,-5.623,-5.6272,-5.6232,-5.6336,-5.6372,-5.6446,-5.6476,-5.6434,-5.6589,-5.662,-5.6759,-5.6803,-5.6833,-5.686,-5.6811,-5.7006,-5.7024,-5.7041,-5.7103,-5.7127,-5.6837,-5.6836,-5.6835,-5.6835,0,-5.6238,-5.6324,-5.64,-5.6475,-5.6526,-5.6624,-5.663,-5.6682,-5.6669,-5.6681,-5.6795,-5.6831,-5.6906,-5.6937,-5.6925,-5.7074,-5.705,-5.7007,-5.6932,-5.7073,-5.713,-5.7154,-5.6846,-5.6843,-5.6841,-5.684,0,0,-5.646,-5.653,-5.6558,-5.6591,-5.6649,-5.6714,-5.6809,-5.6883,-5.6928,-5.6979,-5.7058,-5.7163,-5.7124,-5.7165,-5.7156,-5.7221,-5.7362,-5.717,-5.7171,-5.7205,-5.7528,-5.756,-5.7588,-5.7341,-5.7346,-5.7349,-5.7523,0,-5.6632,-5.6801,-5.6797,-5.6952,-5.703,-5.6992,-5.7074,-5.7117,-5.7131,-5.7197,-5.721,-5.7286,-5.7228,-5.7252,-5.7315,-5.7332,-5.7427,-5.7319,-5.7412,-5.7416,-5.7402,-5.7618,-5.7652,-5.7815,-5.7546,-5.755,-5.7552,0,-5.6857,-5.6918,-5.7082,-5.7128,-5.7161,-5.7235,-5.7302,-5.7367,-5.7414,-5.7419,-5.7464,-5.7444,-5.7538,-5.746,-5.7588,-5.7514,-5.7552,-5.7566,-5.7572,-5.7581,-5.7493,-5.7633,-5.7867,-5.7892,-5.7588,-5.7585,-5.7582,0,-5.7002,-5.7126,-5.7239,-5.7269,-5.7326,-5.7379,-5.7404,-5.7447,-5.7492,-5.755,-5.7578,-5.7645,-5.7682,-5.7734,-5.7732,-5.7675,-5.7862,-5.7783,-5.7867,-5.7867,-5.7909,-5.7906,-5.8153,-5.7932,-5.7932,-5.7932,-5.7931,0,-5.7196,-5.7298,-5.7306,-5.7376,-5.7488,-5.7481,-5.7591,-5.7611,-5.7649,-5.7721,-5.7691,-5.7759,-5.7752,-5.7819,-5.7818,-5.7924,-5.7941,-5.7946,-5.7945,-5.7949,-5.7949,-5.7974,-5.7963,-5.7938,-5.7937,-5.7935,-5.7934,0,-5.7378,-5.7388,-5.7509,-5.7553,-5.7566,-5.7647,-5.7683,-5.7749,-5.7759,-5.785,-5.787,-5.7886,-5.7964,-5.7967,-5.8056,-5.8055,-5.8184,-5.8169,-5.8169,-5.8166,-5.825,-5.8243,-5.8522,-5.8559,-5.8314,-5.8316,-5.8318,0,-5.7502,-5.7579,-5.7631,-5.7678,-5.7708,-5.7783,-5.7829,-5.7824,-5.7872,-5.7932,-5.799,-5.8065,-5.8125,-5.8251,-5.8268,-5.8336,-5.8323,-5.8416,-5.8333,-5.8335,-5.8325,-5.832,-5.8328,-5.8433,-5.8436,-5.8438,-5.844,0,-5.7719,-5.772,-5.7788,-5.7859,-5.7914,-5.7969,-5.8019,-5.8058,-5.8059,-5.8114,-5.8195,-5.8241,-5.8332,-5.8407,-5.8472,-5.8496,-5.8468,-5.8466,-5.8489,-5.8495,-5.8491,-5.8494,-5.8214,-5.8459,-5.8457,-5.8456,-5.8455,-5.8454,-5.7876,-5.7943,-5.7991,-5.8067,-5.8105,-5.8152,-5.8216,-5.8235,-5.8302,-5.8377,-5.8369,-5.8458,-5.8502,-5.8587,-5.8616,-5.8684,-5.8652,-5.8685,-5.8694,-5.8702,-5.8711,-5.848,-5.8696,-5.8695,-5.8695,-5.8694,-5.8694,0,-5.8093,-5.8121,-5.8192,-5.8264,-5.8324,-5.8293,-5.8347,-5.8399,-5.8478,-5.8522,-5.8582,-5.8673,-5.8745,-5.8769,-5.8838,-5.8888,-5.8876,-5.8906,-5.8902,-5.8908,-5.8736,-5.871,-5.8914,-5.8914,-5.8914,-5.8914,-5.8914,-5.8914,-5.8213,-5.8324,-5.8331,-5.846,-5.8487,-5.8575,-5.8608,-5.8651,-5.8687,-5.8791,-5.8851,-5.8866,-5.8902,-5.8973,-5.9037,-5.9042,-5.9069,-5.9104,-5.9103,-5.8942,-5.892,-5.8899,-5.8874,-5.911,-5.911,-5.927,-5.9271,-5.9272]}]]